SB KEPS @ AMSAT $ORB14261.O Orbital Elements 14261.OSCAR
HR AMSAT ORBITAL ELEMENTS FOR OSCAR SATELLITES FROM WA5QGD FORT WORTH,TX September 18, 2014 BID: ORB14261.O TO ALL RADIO AMATEURS BT
Satellite: AO-07 Catalog number: 07530 Epoch time: 14259.98430331 Element set: 62 Inclination: 101.4829 deg RA of node: 238.8271 deg Eccentricity: 0.0012328 Arg of perigee: 114.6971 deg Mean anomaly: 279.6680 deg Mean motion: 12.53607124 rev/day Decay rate: -3.2e-07 rev/day^2 Epoch rev: 82302 Checksum: 284
Satellite: FO-29 Catalog number: 24278 Epoch time: 14260.60027075 Element set: 465 Inclination: 098.5148 deg RA of node: 261.7059 deg Eccentricity: 0.0351226 Arg of perigee: 057.9953 deg Mean anomaly: 085.8131 deg Mean motion: 13.53029412 rev/day Decay rate: -4.0e-08 rev/day^2 Epoch rev: 89316 Checksum: 311
Satellite: SO-33 Catalog number: 25509 Epoch time: 14260.45374693 Element set: 837 Inclination: 031.4354 deg RA of node: 357.5711 deg Eccentricity: 0.0349365 Arg of perigee: 202.8237 deg Mean anomaly: 238.8887 deg Mean motion: 14.29617508 rev/day Decay rate: 1.052e-05 rev/day^2 Epoch rev: 83036 Checksum: 326
Satellite: RS-22 Catalog number: 27939 Epoch time: 14261.37798940 Element set: 857 Inclination: 097.8175 deg RA of node: 070.9385 deg Eccentricity: 0.0013449 Arg of perigee: 167.2279 deg Mean anomaly: 192.9306 deg Mean motion: 14.65330778 rev/day Decay rate: 9.83e-06 rev/day^2 Epoch rev: 58637 Checksum: 372
Satellite: HO-68 Catalog number: 36122 Epoch time: 14261.14184612 Element set: 946 Inclination: 100.2392 deg RA of node: 310.1436 deg Eccentricity: 0.0007612 Arg of perigee: 025.7769 deg Mean anomaly: 334.3721 deg Mean motion: 13.16318197 rev/day Decay rate: -4.3e-07 rev/day^2 Epoch rev: 22866 Checksum: 281
Satellite: AO-73 Catalog number: 39444 Epoch time: 14260.67439612 Element set: 248 Inclination: 097.7640 deg RA of node: 328.1566 deg Eccentricity: 0.0060485 Arg of perigee: 303.7132 deg Mean anomaly: 055.8318 deg Mean motion: 14.78596739 rev/day Decay rate: 2.305e-05 rev/day^2 Epoch rev: 4313 Checksum: 324
Satellite: EO-79 Catalog number: 40025 Epoch time: 14261.25210219 Element set: 252 Inclination: 097.9719 deg RA of node: 156.0480 deg Eccentricity: 0.0014184 Arg of perigee: 001.1589 deg Mean anomaly: 358.9649 deg Mean motion: 14.85460661 rev/day Decay rate: 2.990e-05 rev/day^2 Epoch rev: 1340 Checksum: 302
/EX SB KEPS @ AMSAT $ORB14261.D Orbital Elements 14261.MICROS
HR AMSAT ORBITAL ELEMENTS FOR THE MICROSATS FROM WA5QGD FORT WORTH,TX September 18, 2014 BID: ORB14261.D TO ALL RADIO AMATEURS BT
Satellite: UO-11 Catalog number: 14781 Epoch time: 14260.75438635 Element set: 599 Inclination: 097.8428 deg RA of node: 319.0339 deg Eccentricity: 0.0007810 Arg of perigee: 231.6715 deg Mean anomaly: 128.3796 deg Mean motion: 14.81737554 rev/day Decay rate: 9.25e-06 rev/day^2 Epoch rev: 64167 Checksum: 338
Satellite: AO-16 Catalog number: 20439 Epoch time: 14261.43752064 Element set: 114 Inclination: 098.5122 deg RA of node: 197.0393 deg Eccentricity: 0.0009903 Arg of perigee: 239.7813 deg Mean anomaly: 238.0995 deg Mean motion: 14.32387909 rev/day Decay rate: 1.43e-06 rev/day^2 Epoch rev: 28783 Checksum: 317
Satellite: LO-19 Catalog number: 20442 Epoch time: 14260.89861877 Element set: 50 Inclination: 098.4831 deg RA of node: 196.8858 deg Eccentricity: 0.0011038 Arg of perigee: 229.8312 deg Mean anomaly: 130.1906 deg Mean motion: 14.32587757 rev/day Decay rate: 1.27e-06 rev/day^2 Epoch rev: 28795 Checksum: 332
Satellite: AO-27 Catalog number: 22825 Epoch time: 14260.84817177 Element set: 761 Inclination: 098.6705 deg RA of node: 206.4694 deg Eccentricity: 0.0008852 Arg of perigee: 034.0798 deg Mean anomaly: 024.6389 deg Mean motion: 14.29746194 rev/day Decay rate: 1.31e-06 rev/day^2 Epoch rev: 9402 Checksum: 327
Satellite: IO-26 Catalog number: 22826 Epoch time: 14261.44229197 Element set: 519 Inclination: 098.6648 deg RA of node: 207.2658 deg Eccentricity: 0.0009185 Arg of perigee: 024.6961 deg Mean anomaly: 335.4659 deg Mean motion: 14.30049686 rev/day Decay rate: 1.28e-06 rev/day^2 Epoch rev: 9424 Checksum: 333
Satellite: GO-32 Catalog number: 25397 Epoch time: 14261.15839478 Element set: 441 Inclination: 098.4797 deg RA of node: 215.7253 deg Eccentricity: 0.0002156 Arg of perigee: 070.0820 deg Mean anomaly: 357.6331 deg Mean motion: 14.23461339 rev/day Decay rate: 7.5e-07 rev/day^2 Epoch rev: 84109 Checksum: 308
Satellite: NO-44 Catalog number: 26931 Epoch time: 14261.47729092 Element set: 696 Inclination: 067.0518 deg RA of node: 157.8863 deg Eccentricity: 0.0007335 Arg of perigee: 277.1402 deg Mean anomaly: 082.8864 deg Mean motion: 14.30150490 rev/day Decay rate: 1.19e-06 rev/day^2 Epoch rev: 67694 Checksum: 326
Satellite: SO-50 Catalog number: 27607 Epoch time: 14261.04403291 Element set: 503 Inclination: 064.5560 deg RA of node: 309.2541 deg Eccentricity: 0.0059095 Arg of perigee: 345.6273 deg Mean anomaly: 014.3144 deg Mean motion: 14.73908457 rev/day Decay rate: 8.41e-06 rev/day^2 Epoch rev: 63116 Checksum: 285
Satellite: CO-55 Catalog number: 27844 Epoch time: 14260.49662053 Element set: 15 Inclination: 098.6994 deg RA of node: 267.9442 deg Eccentricity: 0.0009723 Arg of perigee: 016.1409 deg Mean anomaly: 137.0108 deg Mean motion: 14.21557584 rev/day Decay rate: 2.98e-06 rev/day^2 Epoch rev: 58169 Checksum: 330
Satellite: CO-57 Catalog number: 27848 Epoch time: 14260.99533332 Element set: 957 Inclination: 098.7087 deg RA of node: 268.1977 deg Eccentricity: 0.0009723 Arg of perigee: 021.4862 deg Mean anomaly: 032.2443 deg Mean motion: 14.21238094 rev/day Decay rate: 2.64e-06 rev/day^2 Epoch rev: 58168 Checksum: 337
Satellite: AO-51 Catalog number: 28375 Epoch time: 14260.80882845 Element set: 933 Inclination: 098.2586 deg RA of node: 204.6006 deg Eccentricity: 0.0084235 Arg of perigee: 072.9203 deg Mean anomaly: 288.1192 deg Mean motion: 14.41427359 rev/day Decay rate: 3.02e-06 rev/day^2 Epoch rev: 53725 Checksum: 311
Satellite: CP3 Catalog number: 31129 Epoch time: 14260.94953090 Element set: 845 Inclination: 097.9444 deg RA of node: 234.2865 deg Eccentricity: 0.0099667 Arg of perigee: 082.3287 deg Mean anomaly: 346.8346 deg Mean motion: 14.54844537 rev/day Decay rate: 1.418e-05 rev/day^2 Epoch rev: 39352 Checksum: 345
Satellite: CO-65 Catalog number: 32785 Epoch time: 14260.46274853 Element set: 54 Inclination: 097.6906 deg RA of node: 308.6909 deg Eccentricity: 0.0012578 Arg of perigee: 241.5094 deg Mean anomaly: 242.3299 deg Mean motion: 14.85538783 rev/day Decay rate: 1.896e-05 rev/day^2 Epoch rev: 34572 Checksum: 354
Satellite: PRISM Catalog number: 33493 Epoch time: 14261.51113300 Element set: 297 Inclination: 098.2542 deg RA of node: 081.1935 deg Eccentricity: 0.0018385 Arg of perigee: 136.0425 deg Mean anomaly: 224.2244 deg Mean motion: 14.90006555 rev/day Decay rate: 5.437e-05 rev/day^2 Epoch rev: 30607 Checksum: 269
Satellite: SOHLA-1 Catalog number: 33496 Epoch time: 14260.43070444 Element set: 454 Inclination: 098.1810 deg RA of node: 021.6461 deg Eccentricity: 0.0005177 Arg of perigee: 316.2844 deg Mean anomaly: 084.4380 deg Mean motion: 14.70892048 rev/day Decay rate: 5.98e-06 rev/day^2 Epoch rev: 30307 Checksum: 288
Satellite: TISAT-1 Catalog number: 36799 Epoch time: 14261.21873920 Element set: 556 Inclination: 098.0177 deg RA of node: 353.9364 deg Eccentricity: 0.0014074 Arg of perigee: 023.5129 deg Mean anomaly: 336.6740 deg Mean motion: 14.86068918 rev/day Decay rate: 3.700e-05 rev/day^2 Epoch rev: 22653 Checksum: 317
Satellite: STUDSAT Catalog number: 36801 Epoch time: 14260.82386723 Element set: 887 Inclination: 098.0372 deg RA of node: 003.4959 deg Eccentricity: 0.0008450 Arg of perigee: 345.5732 deg Mean anomaly: 127.3553 deg Mean motion: 14.98419142 rev/day Decay rate: 1.6715e-04 rev/day^2 Epoch rev: 22699 Checksum: 322
Satellite: ALMASAT-1 Catalog number: 38078 Epoch time: 14260.80094750 Element set: 143 Inclination: 069.4685 deg RA of node: 195.1110 deg Eccentricity: 0.0579126 Arg of perigee: 268.5459 deg Mean anomaly: 183.2603 deg Mean motion: 14.54525569 rev/day Decay rate: 2.6616e-04 rev/day^2 Epoch rev: 13508 Checksum: 321
Satellite: XATCOBEO Catalog number: 38082 Epoch time: 14243.34478676 Element set: 563 Inclination: 069.3815 deg RA of node: 097.0364 deg Eccentricity: 0.0033293 Arg of perigee: 225.1799 deg Mean anomaly: 135.4582 deg Mean motion: 16.41261006 rev/day Decay rate: 1.3583328e-01 rev/day^2 Epoch rev: 13623 Checksum: 317
Satellite: CUBEBUG-1 Catalog number: 39153 Epoch time: 14261.52436101 Element set: 482 Inclination: 098.0359 deg RA of node: 341.6235 deg Eccentricity: 0.0018755 Arg of perigee: 051.7680 deg Mean anomaly: 308.5218 deg Mean motion: 14.77937811 rev/day Decay rate: 2.030e-05 rev/day^2 Epoch rev: 7534 Checksum: 291
Satellite: ESTCUBE-1 Catalog number: 39161 Epoch time: 14261.47087714 Element set: 480 Inclination: 098.0914 deg RA of node: 341.6670 deg Eccentricity: 0.0011479 Arg of perigee: 098.2614 deg Mean anomaly: 261.9897 deg Mean motion: 14.70173149 rev/day Decay rate: 1.650e-05 rev/day^2 Epoch rev: 7330 Checksum: 308
Satellite: DUCHIFAT-1 Catalog number: 40021 Epoch time: 14261.37874151 Element set: 258 Inclination: 097.9718 deg RA of node: 156.2151 deg Eccentricity: 0.0015233 Arg of perigee: 002.4656 deg Mean anomaly: 357.6572 deg Mean motion: 14.85645564 rev/day Decay rate: 3.967e-05 rev/day^2 Epoch rev: 1341 Checksum: 298
Satellite: NANOSATCBR1 Catalog number: 40024 Epoch time: 14261.51969821 Element set: 248 Inclination: 097.9706 deg RA of node: 156.3191 deg Eccentricity: 0.0014031 Arg of perigee: 359.7040 deg Mean anomaly: 000.4125 deg Mean motion: 14.85521827 rev/day Decay rate: 3.532e-05 rev/day^2 Epoch rev: 1343 Checksum: 268
